TimeEDT,TemperatureF,Dew PointF,Humidity,Sea Level PressureIn,VisibilityMPH,Wind Direction,Wind SpeedMPH,Gust SpeedMPH,PrecipitationIn,Events,Conditions,WindDirDegrees,DateUTC
12:27 AM,66.2,64.4,94,30.08,5.0,Calm,Calm,-,0.01,,Mostly Cloudy,0,2008-05-28 04:27:00
12:54 AM,64.9,64.9,100,30.01,2.5,Calm,Calm,-,0.01,,Scattered Clouds,0,2008-05-28 04:54:00
1:07 AM,66.2,64.4,94,30.08,5.0,Calm,Calm,-,N/A,,Partly Cloudy,0,2008-05-28 05:07:00
1:45 AM,64.4,64.4,100,30.08,2.5,Calm,Calm,-,N/A,,Scattered Clouds,0,2008-05-28 05:45:00
1:52 AM,64.4,64.4,100,30.08,3.0,Calm,Calm,-,N/A,,Mostly Cloudy,0,2008-05-28 05:52:00
1:54 AM,64.9,64.9,100,30.00,3.0,Calm,Calm,-,N/A,,Mostly Cloudy,0,2008-05-28 05:54:00
2:49 AM,64.4,64.4,100,30.07,6.0,NNW,3.5,-,N/A,,Scattered Clouds,330,2008-05-28 06:49:00
2:54 AM,64.9,64.9,100,30.01,6.0,NNW,3.5,-,N/A,,Mostly Cloudy,330,2008-05-28 06:54:00
3:21 AM,66.2,64.4,94,30.07,4.0,Calm,Calm,-,N/A,,Mostly Cloudy,0,2008-05-28 07:21:00
3:54 AM,64.9,64.9,100,29.99,5.0,NNW,3.5,-,N/A,,Overcast,330,2008-05-28 07:54:00
4:54 AM,66.0,64.9,96,30.00,7.0,NNW,4.6,-,0.00,,Overcast,340,2008-05-28 08:54:00
5:54 AM,66.0,64.9,96,30.02,8.0,Variable,4.6,-,0.00,,Overcast,0,2008-05-28 09:54:00
6:40 AM,64.4,62.6,94,30.10,10.0,North,6.9,-,N/A,,Overcast,10,2008-05-28 10:40:00
6:54 AM,66.0,63.0,90,30.04,10.0,NE,3.5,-,N/A,,Overcast,40,2008-05-28 10:54:00
7:15 AM,66.2,62.6,88,30.11,10.0,NNE,3.5,-,N/A,,Overcast,20,2008-05-28 11:15:00
7:54 AM,66.2,64.4,94,30.11,9.0,North,4.6,-,N/A,,Overcast,350,2008-05-28 11:54:00
8:12 AM,66.2,62.6,88,30.12,10.0,North,6.9,-,N/A,,Overcast,350,2008-05-28 12:12:00
8:38 AM,66.2,64.4,94,30.12,10.0,North,4.6,-,N/A,,Overcast,360,2008-05-28 12:38:00
8:54 AM,66.9,64.0,90,30.06,10.0,North,4.6,-,N/A,,Overcast,350,2008-05-28 12:54:00
9:54 AM,66.0,64.0,93,30.08,10.0,NW,5.8,-,N/A,,Overcast,320,2008-05-28 13:54:00
10:37 AM,64.4,64.4,100,30.14,1.8,NNW,8.1,-,0.02,Rain,Heavy Rain,340,2008-05-28 14:37:00
10:51 AM,64.4,64.4,100,30.15,1.8,NNW,8.1,-,0.09,Rain,Heavy Rain,330,2008-05-28 14:51:00
10:52 AM,64.9,64.0,97,30.09,1.8,NNW,8.1,-,0.09,Rain,Heavy Rain,330,2008-05-28 14:52:00
11:02 AM,64.4,62.6,94,30.15,1.0,NNE,6.9,-,0.08,Rain,Heavy Rain,20,2008-05-28 15:02:00
11:11 AM,64.4,62.6,94,30.15,2.0,NNE,4.6,-,0.12,Rain,Rain,30,2008-05-28 15:11:00
11:21 AM,64.4,62.6,94,30.16,4.0,ENE,3.5,-,0.13,Rain,Light Rain,70,2008-05-28 15:21:00
11:28 AM,64.4,64.4,100,30.16,2.5,East,4.6,-,0.14,Rain,Heavy Rain,90,2008-05-28 15:28:00
11:37 AM,64.4,64.4,100,30.16,1.5,Calm,Calm,-,0.19,Rain,Rain,0,2008-05-28 15:37:00
11:54 AM,64.0,63.0,96,30.11,1.2,Variable,4.6,-,0.22,Rain,Rain,0,2008-05-28 15:54:00
12:03 PM,64.4,62.6,94,30.16,1.8,Calm,Calm,-,0.02,Rain,Rain,0,2008-05-28 16:03:00
12:23 PM,64.4,62.6,94,30.17,2.5,Variable,3.5,-,0.05,Rain,Light Rain,0,2008-05-28 16:23:00
12:30 PM,64.4,62.6,94,30.17,3.0,NE,4.6,-,0.06,Rain,Light Rain,40,2008-05-28 16:30:00
12:52 PM,64.4,62.6,94,30.18,2.5,Calm,Calm,-,0.08,Rain,Rain,0,2008-05-28 16:52:00
12:54 PM,64.9,63.0,93,30.12,3.0,Calm,Calm,-,0.08,Rain,Light Rain,0,2008-05-28 16:54:00
1:04 PM,64.4,62.6,94,30.18,2.0,NNE,3.5,-,0.01,Rain,Rain,20,2008-05-28 17:04:00
1:43 PM,64.4,62.6,94,30.17,2.0,Calm,Calm,-,0.07,Rain,Rain,0,2008-05-28 17:43:00
1:54 PM,64.0,62.1,93,30.12,2.0,East,3.5,-,0.11,Rain,Rain,100,2008-05-28 17:54:00
2:01 PM,64.4,62.6,94,30.16,5.0,East,3.5,-,0.01,Rain,Rain,100,2008-05-28 18:01:00
2:54 PM,66.9,63.0,87,30.12,10.0,Calm,Calm,-,0.02,Rain,Light Rain,0,2008-05-28 18:54:00
3:05 PM,66.2,62.6,88,30.17,5.0,Calm,Calm,-,0.00,Rain,Light Rain,0,2008-05-28 19:05:00
3:15 PM,68.0,62.6,83,30.17,5.0,Calm,Calm,-,0.00,Rain,Light Rain,0,2008-05-28 19:15:00
3:54 PM,68.0,63.0,84,30.11,5.0,Calm,Calm,-,0.00,,Haze,0,2008-05-28 19:54:00
4:21 PM,69.8,62.6,78,30.16,5.0,Calm,Calm,-,N/A,,Haze,0,2008-05-28 20:21:00
4:28 PM,68.0,62.6,83,30.16,5.0,Calm,Calm,-,N/A,,Haze,0,2008-05-28 20:28:00
4:54 PM,69.1,62.1,78,30.10,5.0,Calm,Calm,-,N/A,,Haze,0,2008-05-28 20:54:00
5:54 PM,62.1,57.9,86,30.12,10.0,NE,12.7,-,N/A,,Overcast,50,2008-05-28 21:54:00
6:54 PM,62.1,57.0,84,30.14,10.0,NNE,3.5,-,N/A,,Overcast,30,2008-05-28 22:54:00
7:06 PM,62.6,57.2,82,30.19,10.0,Variable,3.5,-,N/A,,Overcast,0,2008-05-28 23:06:00
7:54 PM,61.0,55.9,83,30.16,10.0,Calm,Calm,-,N/A,,Overcast,0,2008-05-28 23:54:00
8:54 PM,59.0,54.0,83,30.18,10.0,NE,4.6,-,N/A,,Overcast,50,2008-05-29 00:54:00
9:54 PM,55.9,51.1,84,30.21,10.0,Variable,4.6,-,N/A,,Overcast,0,2008-05-29 01:54:00
10:54 PM,54.0,48.0,80,30.22,10.0,Variable,4.6,-,N/A,,Overcast,0,2008-05-29 02:54:00
11:18 PM,53.6,48.2,82,30.26,10.0,Calm,Calm,-,N/A,,Overcast,0,2008-05-29 03:18:00
11:51 PM,53.6,48.2,82,30.27,10.0,Calm,Calm,-,N/A,,Overcast,0,2008-05-29 03:51:00
11:54 PM,54.0,48.0,80,30.23,10.0,Calm,Calm,-,N/A,,Overcast,0,2008-05-29 03:54:00